"Pseudo-MPEC" for A10bmrQ

Created 2019 Jan 12 20:18:04 UT using Find_Orb

Click here for an explanation of pseudo-MPECs

 
 Astrometry: 
     A10bmrQ  C2019 01 11N,e!@cRo7l\DTNgAstrometry(we^p^-EW[hhP[Yi0?Te_q=.cdjT05
     A10bmrQ  C2019 01 11:_@Rl?/M.wXC0G-OVMhMjwj.AR'n(dtA+L3J\:23r0Dt=M*j15mwT05
     A10bmrQ  C2019 01 11!/[`[Heqcw+5a)cY0m#%ls[j5y#=2xaHGsdWXS?a=xLd!RiHL$8BT05
     A10bmrQ  C2019 01 11)06+1%Ot](9yEkKdF#Sn)X`KKUFvfBZP2e;ODj#\sp[ra`\a=j0GT05
     A10bmrQ  C2019 01 11$FI^P[#ldH6g*/]?\x%:BbJCdNJF.wJ.b^[e*FgAgq*Kjf#o+=lGT05
     A10bmrQ  C2019 01 11Xj\fjDJc/QPmZrGGvp,mbSi,?9yQqj3]41anOptZB6[:]\jTh^puT05
     A10bmrQ  C2019 01 117F4t4y5)N,W.`yyA:\W*6yB-uIcji?je$TTXj],Pno6nn2bPiFAiT05
     A10bmrQ  C2019 01 11(eRbP1=*i-redacted;AO76DM^l9Fw)lL5j(ERd0^L;oiy^PA4g1T05
     A10bmrQ  C2019 01 11k;t=Qta3s9w*xIyGmx,Cste*,4Sevgh;_I5G\/:Ym8\l`OjFMd@lT05
     A10bmrQ  C2019 01 1123D*O*S+i'EN89@RheRo)La+RA;xxNfBX;f31/o12C#KdUm)-c2YT05
     A10bmrQ  C2019 01 12xaPtsE!_2fo'Q[KT`icSrJp^]O/IOBg']q!1pVp(C?0NT5):$FHP474
     A10bmrQ  C2019 01 12WvtD#1oYBe5mHXf2aAGj5%j]/aVQ#(MTr14Aj0-#U8jAy1hCFG4^474
     A10bmrQ  C2019 01 12isKFk]42'DsaH(8IS#kQ#8?aHnU/:My3REXiYDqWX%2qJ@NoqR.6474
     A10bmrQ  C2019 01 12*s1\iLQhw.,/h`B_db4Z3@h#gx-jr,tkq1/;]:)ZIii7OeP:'tn8474
     A10bmrQ  C2019 01 12geyX\0BQG\Z[_Iclick$PyD'mKEg@^]kQpB5AwL+?#RU^g;alk`6474
     A10bmrQ  C2019 01 120W'(/QJ'Al$mQwJ^SbKHJq90af#8llHJMP3%:FsmxJq\WZa%*Ysn474
     A10bmrQ  C2019 01 12Dy]q)pP)dP*7w\bor?OYyYlr'gWnd.Mba0ZjZdsx;W689Ra1K6EJ474
     A10bmrQ  C2019 01 12yC;L+6?lJ*@yw87kDSVpi!@mm=xqpw:fIh9?[cIU?RXnwVGTLj/G474
     A10bmrQ  C2019 01 12XB[BCtbX7e3Wh?i\=y]KLMZM177Fe%%-Z:*#il5Z1HkSg4i*4L/`474
     A10bmrQ  C2019 01 12eF]D-=_7tN]/bI1TyhF]Lm7OEr-1rkUYbnq7v._W294e[ZH^`og,474
     A10bmrQ  C2019 01 12(-dEU5\RC\7!n*5YeI\#/Q$P8b=JyHU\Us'e.==+y.,Hlu[WDq5.474
     A10bmrQ  C2019 01 12eT$tj3GKxUhoaB#GjoC%'AQpOTchoC4L!c=i0hg@W7[Sn(w%EGSo474
     A10bmrQ  C2019 01 12bEc.?Rbt8s1sLYIw[%v(3k%@IhereCQy+vI*uU]);0nh\Nj_KeH.474
     A10bmrQ  C2019 01 12#pyrs]nO`+XUMCR!hlLnWN/hD[+U_!%^NyBBN\'`7w34*hvop-CM474
     A10bmrQ  C2019 01 12\L+A^=vfy#MjU:$_][5RQBuX^a)51cL]IG]-dYt=7!-F;e_xFt*R474
     A10bmrQ  C2019 01 12CRWo6MhZ-bwxc^DXJ)1p#;sug'[$Ilt_Mj2;KsWHqta;R1x=[U38474
     A10bmrQ  C2019 01 124N,b33,yNWM_ZDYA:f,l)AHYv%^`*RN29jyLvxUTK:hJtc`o0CjX474
     A10bmrQ  C2019 01 12#;w5Tg4Z=f5K8P9J40KDSpWmt@f\iiQf$_-8@$%UPq+ig/F!sKy'474
     A10bmrQ  C2019 01 12,?*]_cwlU=q4L!+2DLAj';p'Bk7p;heG-p^m3[9hRd#%ebk0ifTp474
     A10bmrQ  C2019 01 12N1Wm2d=p1PRK?*forivcU^T?MAsxxuZHdb3AUE`s;q#GvB,frou1474
     A10bmrQ  C2019 01 12U?25APQTLaSf4I77p44T,LO=PCVOdl**XtKc%Z5f3U6l8-Zc425=474
     A10bmrQ  C2019 01 12RS/e'4N,n=M\r'rd?YEyw322QRkJ.-Ys4H!uHRjO%UI8TH5A4HLP474
     A10bmrQ  C2019 01 12V4P$6%tT'MEW,TZDb\4)q60Gj(TxJ;nOE*e$%t,,s=lMwji3$L*:474
     A10bmrQ  C2019 01 125!+o**J/YDo?=21D/!gBZ9'Nv3g`sXON=EXHy\1XZwwlbuUcbQwX474
     A10bmrQ  C2019 01 12qhF4g%6f;!DB[usM]I\14xgl$?8=20hTWA6m-QH+M*G1=Jn=[(o#474
     A10bmrQ  C2019 01 12QXb.5)x\j)*uW4!Xr(nj=P_t$3qEWYv6B^%%\aJeEEvZ!T4s6(c.474
     A10bmrQ  C2019 01 12'GYW]U;4QW^q#^m7_K2lSveS)!C\)jo:(JVD9-Vw$Y5Lpt(A-tN]474
     A10bmrQ  C2019 01 12:wW08_4H^MUexplanationn%4M::wiBPpFgk_WISj+!(C;kSDGIh474

Station data:
(474) Mount John Observatory, Lake Tekapo  (S43.987388 E170.464960)  New
   Zealand.  Observers A. C. Gilmore, P. M. Kilmartin. Measurer P. M.
   Kilmartin. 1.0-m f/7.7 reflector + CCD.
(T05) ATLAS-HKO, Haleakala  (N20.707573 W156.257010)  US/Hawaii.  Observers
   L. Denneau, A. Heinze, H. Weiland, J. Tonry, H. Flewelling, A.
   Fitzsimmons, D. Young. Measurers L. Denneau, A. Heinze, J. Tonry. 0.5-m
   f/2.0 Schmidt + CCD.

Orbital elements:  A10bmrQ
   Perigee 2019 Jan 12.464574 +/- 6.31e-6 TT = 11:08:59 (JD 2458495.964574)
Epoch 2019 Jan 12.0 TT = JDT 2458495.5                        AutoNEOCP
q 99656.3975 +/- 29.9               (J2000 equator)
H   27.3  G 0.15                    Peri.  280.21799 +/- 0.00054
                                    Node   274.88541 +/- 0.0006
e  91.3564098 +/- 0.0733            Incl.   47.31050 +/- 0.00049
From 38 observations 2019 Jan. 11-12 (24.9 hr); mean residual 4".51
Residuals in arcseconds: 
190111 T05  .13-  .16-    190112 474  7.8-  3.8+    190112 474  3.5+  .68-    
190111 T05  .04-  .18-    190112 474  7.7-  3.2+    190112 474  4.1+  .73-    
190111 T05  .27-  .34+    190112 474  6.0-  2.4+    190112 474  1.5+  .63-    
190111 T05  .23+  .29+    190112 474  4.7-  1.6+    190112 474  3.3+  .18-    
190111 T05  .14-  .16+    190112 474  6.4-  2.1+    190112 474  6.6+  .81-    
190111 T05  .18-  .14-    190112 474  4.2-  1.4+    190112 474  9.2+  .92-    
190111 T05  .51+  .61-    190112 474  4.9-  2.1+    190112 474  6.9+  .84-    
190111 T05  .41-  .26+    190112 474  2.0-  .65+    190112 474  7.5+  .80-    
190111 T05  .18+  .43-    190112 474  1.8-  1.2+    190112 474  7.9+  1.3-    
190111 T05  .28+  .36+    190112 474  2.0-  .50+    190112 474 12.1+  .79+    
190112 474  6.9-  3.0+    190112 474  1.6-  .84+    190112 474 15.3+  .81-    
190112 474  7.0-  2.7+    190112 474  .22+  .36+    190112 474 17.3+  .63+    
190112 474  7.4-  3.4+    190112 474  3.6+  .97-    

Ephemerides (geocentric):
Date (UTC) HH   RA              Dec         delta   r     elong  mag " sig PA
---- -- -- --  -------------   -----------  ------ ------ -----  --- ---- ---
2019 01 12 20  18 23 29.148   +01 04 26.25  616842 .97987  28.7 24?? 1.15  70
2019 01 12 21  18 26 01.523   +01 45 40.03  684564 .97948  28.9 24?? 1.31  65
2019 01 12 22  18 28 06.519   +02 19 27.34  752425 .97910  29.1 24?? 1.45  62
2019 01 12 23  18 29 50.895   +02 47 38.37  820389 .97871  29.3 24?? 1.56  60
2019 01 13 00  18 31 19.355   +03 11 29.96  888433 .97832  29.4 24?? 1.66  58
2019 01 13 01  18 32 35.277   +03 31 57.29  956539 .97794  29.6 24?? 1.75  57
2019 01 13 02  18 33 41.148   +03 49 40.99  .00685 .97755  29.7 24?? 1.83  56
2019 01 13 03  18 34 38.838   +04 05 11.60  .00731 .97716  29.8 25?? 1.89  55
2019 01 13 04  18 35 29.780   +04 18 52.54  .00776 .97678  29.9 25?? 1.95  54
2019 01 13 05  18 36 15.093   +04 31 02.04  .00822 .97639  30.0 25?? 2.00  54
2019 01 13 06  18 36 55.659   +04 41 54.51  .00867 .97601  30.1 25?? 2.05  53
2019 01 13 07  18 37 32.188   +04 51 41.50  .00913 .97562  30.2 25?? 2.09  53
2019 01 13 08  18 38 05.254   +05 00 32.35  .00959 .97524  30.3 25?? 2.13  52
2019 01 13 09  18 38 35.326   +05 08 34.71  .01004 .97485  30.4 25?? 2.16  52
2019 01 13 10  18 39 02.794   +05 15 54.91  .01050 .97447  30.4 25?? 2.19  52
2019 01 13 11  18 39 27.982   +05 22 38.20  .01096 .97408  30.5 25?? 2.22  51
2019 01 13 12  18 39 51.163   +05 28 49.03  .01141 .97370  30.6 25?? 2.25  51
2019 01 13 13  18 40 12.568   +05 34 31.12  .01187 .97331  30.6 25?? 2.27  51
2019 01 13 14  18 40 32.393   +05 39 47.68  .01233 .97293  30.7 25?? 2.29  51
2019 01 13 15  18 40 50.808   +05 44 41.44  .01279 .97255  30.7 26?? 2.31  51
2019 01 13 16  18 41 07.957   +05 49 14.76  .01324 .97216  30.8 26?? 2.33  51
2019 01 13 17  18 41 23.968   +05 53 29.67  .01370 .97178  30.8 26?? 2.35  50
2019 01 13 18  18 41 38.950   +05 57 27.96  .01416 .97140  30.9 26?? 2.37  50
2019 01 13 19  18 41 53.000   +06 01 11.19  .01462 .97101  30.9 26?? 2.38  50
2019 01 13 20  18 42 06.202   +06 04 40.71  .01507 .97063  30.9 26?? 2.40  50
2019 01 13 21  18 42 18.631   +06 07 57.75  .01553 .97025  31.0 26?? 2.41  50
2019 01 13 22  18 42 30.353   +06 11 03.36  .01599 .96986  31.0 26?? 2.43  50
2019 01 13 23  18 42 41.428   +06 13 58.50  .01644 .96948  31.1 26?? 2.44  50
2019 01 14 00  18 42 51.907   +06 16 44.02  .01690 .96910  31.1 26?? 2.45  50
2019 01 14 01  18 43 01.838   +06 19 20.66  .01736 .96872  31.1 26?? 2.46  50
2019 01 14 02  18 43 11.263   +06 21 49.11  .01782 .96834  31.2 26?? 2.47  50
2019 01 14 03  18 43 20.219   +06 24 09.99  .01827 .96795  31.2 26?? 2.48  49
2019 01 14 04  18 43 28.742   +06 26 23.84  .01873 .96757  31.2 26?? 2.49  49
2019 01 14 05  18 43 36.862   +06 28 31.16  .01919 .96719  31.3 26?? 2.50  49
2019 01 14 06  18 43 44.608   +06 30 32.41  .01965 .96681  31.3 26?? 2.51  49
2019 01 14 07  18 43 52.004   +06 32 28.00  .02011 .96643  31.3 26?? 2.52  49
2019 01 14 08  18 43 59.075   +06 34 18.30  .02056 .96605  31.3 26?? 2.53  49
2019 01 14 09  18 44 05.842   +06 36 03.65  .02102 .96566  31.4 26?? 2.53  49
2019 01 14 10  18 44 12.323   +06 37 44.37  .02148 .96528  31.4 26?? 2.54  49
2019 01 14 11  18 44 18.538   +06 39 20.75  .02194 .96490  31.4 27?? 2.55  49
2019 01 14 12  18 44 24.502   +06 40 53.05  .02239 .96452  31.4 27?? 2.55  49
2019 01 14 13  18 44 30.231   +06 42 21.50  .02285 .96414  31.5 27?? 2.56  49
2019 01 14 14  18 44 35.738   +06 43 46.34  .02331 .96376  31.5 27?? 2.57  49
2019 01 14 15  18 44 41.037   +06 45 07.77  .02377 .96338  31.5 27?? 2.57  49
2019 01 14 16  18 44 46.139   +06 46 25.98  .02422 .96300  31.5 27?? 2.58  49
2019 01 14 17  18 44 51.055   +06 47 41.15  .02468 .96262  31.6 27?? 2.58  49
2019 01 14 18  18 44 55.796   +06 48 53.44  .02514 .96224  31.6 27?? 2.59  49
2019 01 14 19  18 45 00.370   +06 50 03.00  .02560 .96186  31.6 27?? 2.59  49